| time (UTC) | temp C | wind direction | speed KPH | gust KPH | rain 1hr cm | rain 24hr cm | rain mn cm | humidity % | barometer mb |
| 20260506215343 | 19 | 270 | 0.0 | 0.0 | 0.00 | 0.00 | 0.00 | 1105.9 | |
| 20260506214838 | 19 | 135 | 0.0 | 0.0 | 0.00 | 0.00 | 0.00 | 1105.9 | |
| 20260506214333 | 19 | 135 | 0.0 | 0.0 | 0.00 | 0.00 | 0.00 | 1106.0 | |
| 20260506213827 | 19 | 135 | 0.0 | 0.0 | 0.00 | 0.00 | 0.00 | 1105.8 | |
| 20260506213322 | 19 | 251 | 0.0 | 0.0 | 0.00 | 0.00 | 0.00 | 1105.9 | |
| 20260506212816 | 19 | 0 | 0.0 | 0.0 | 0.00 | 0.00 | 0.00 | 1106.0 | |
| 20260506212311 | 19 | 0 | 0.0 | 0.0 | 0.00 | 0.00 | 0.00 | 1105.9 | |
| 20260506211805 | 19 | 0 | 0.0 | 0.0 | 0.00 | 0.00 | 0.00 | 1106.0 | |
| 20260506211300 | 19 | 0 | 0.0 | 0.0 | 0.00 | 0.00 | 0.00 | 1105.9 | |
| 20260506210755 | 19 | 0 | 0.0 | 0.0 | 0.00 | 0.00 | 0.00 | 1105.9 | |
| 20260506210248 | 19 | 0 | 0.0 | 0.0 | 0.00 | 0.00 | 0.00 | 1105.9 | |
| 20260506205743 | 19 | 0 | 0.0 | 0.0 | 0.00 | 0.00 | 0.00 | 1105.8 | |
| 20260506205237 | 20 | 0 | 0.0 | 0.0 | 0.00 | 0.00 | 0.00 | 1105.8 | |
| 20260506204732 | 20 | 0 | 0.0 | 0.0 | 0.00 | 0.00 | 0.00 | 1105.9 | |
| 20260506204227 | 20 | 0 | 0.0 | 0.0 | 0.00 | 0.00 | 0.00 | 1105.9 | |
| 20260506203721 | 20 | 0 | 0.0 | 0.0 | 0.00 | 0.00 | 0.00 | 1106.0 | |
| 20260506203216 | 20 | 0 | 0.0 | 0.0 | 0.00 | 0.00 | 0.00 | 1106.0 | |
| 20260506202709 | 20 | 0 | 0.0 | 0.0 | 0.00 | 0.00 | 0.00 | 1105.8 | |
| 20260506202204 | 20 | 0 | 0.0 | 0.0 | 0.00 | 0.00 | 0.00 | 1105.8 | |
| 20260506201657 | 20 | 0 | 0.0 | 0.0 | 0.00 | 0.00 | 0.00 | 1105.8 | |
| 20260506201152 | 20 | 0 | 0.0 | 0.0 | 0.00 | 0.00 | 0.00 | 1105.9 | |
| 20260506200646 | 20 | 0 | 0.0 | 0.0 | 0.00 | 0.00 | 0.00 | 1105.8 | |
| 20260506200141 | 20 | 0 | 0.0 | 0.0 | 0.00 | 0.00 | 0.00 | 1105.8 | |
| 20260506195636 | 20 | 0 | 0.0 | 0.0 | 0.00 | 0.00 | 0.00 | 1105.7 | |
| 20260506195130 | 20 | 0 | 0.0 | 0.0 | 0.00 | 0.00 | 0.00 | 1105.7 | |
| 20260506194625 | 20 | 0 | 0.0 | 0.0 | 0.00 | 0.00 | 0.00 | 1105.7 | |
| 20260506194120 | 20 | 0 | 0.0 | 0.0 | 0.00 | 0.00 | 0.00 | 1105.7 | |
| 20260506193614 | 20 | 0 | 0.0 | 0.0 | 0.00 | 0.00 | 0.00 | 1105.7 | |
| 20260506193109 | 20 | 0 | 0.0 | 0.0 | 0.00 | 0.00 | 0.00 | 1105.6 | |
| 20260506192603 | 20 | 0 | 0.0 | 0.0 | 0.00 | 0.00 | 0.00 | 1105.6 | |
| 20260506192058 | 20 | 0 | 0.0 | 0.0 | 0.00 | 0.00 | 0.00 | 1105.4 | |
| 20260506191552 | 20 | 0 | 0.0 | 0.0 | 0.00 | 0.00 | 0.00 | 1105.5 | |
| 20260506191047 | 20 | 0 | 0.0 | 0.0 | 0.00 | 0.00 | 0.00 | 1105.4 | |
| 20260506190542 | 20 | 0 | 0.0 | 0.0 | 0.00 | 0.00 | 0.00 | 1105.3 | |
| 20260506190036 | 21 | 0 | 0.0 | 0.0 | 0.00 | 0.00 | 0.00 | 1105.2 | |
| 20260506185531 | 21 | 315 | 0.0 | 0.0 | 0.00 | 0.00 | 0.00 | 1105.2 | |
| 20260506185025 | 21 | 315 | 0.0 | 0.0 | 0.00 | 0.00 | 0.00 | 1105.0 | |
| 20260506184520 | 21 | 315 | 0.0 | 0.0 | 0.00 | 0.00 | 0.00 | 1104.8 | |
| 20260506184015 | 21 | 315 | 0.0 | 0.0 | 0.00 | 0.00 | 0.00 | 1104.9 | |
| 20260506183509 | 21 | 315 | 0.0 | 0.0 | 0.00 | 0.00 | 0.00 | 1104.9 | |
| 20260506183003 | 21 | 134 | 0.0 | 0.0 | 0.00 | 0.00 | 0.00 | 1105.0 | |
| 20260506182457 | 21 | 134 | 0.0 | 0.0 | 0.00 | 0.00 | 0.00 | 1104.9 | |
| 20260506181952 | 21 | 134 | 0.0 | 0.0 | 0.00 | 0.00 | 0.00 | 1104.9 | |
| 20260506181446 | 21 | 134 | 0.0 | 0.0 | 0.00 | 0.00 | 0.00 | 1104.9 | |
| 20260506180941 | 21 | 134 | 0.0 | 0.0 | 0.00 | 0.00 | 0.00 | 1104.9 | |
| 20260506180436 | 22 | 134 | 0.0 | 0.0 | 0.00 | 0.00 | 0.00 | 1104.8 | |
| 20260506175930 | 22 | 134 | 0.0 | 0.0 | 0.00 | 0.00 | 0.00 | 1104.8 | |
| 20260506175425 | 22 | 134 | 0.0 | 0.0 | 0.00 | 0.00 | 0.00 | 1104.5 | |
| 20260506174414 | 22 | 134 | 0.0 | 0.0 | 0.00 | 0.00 | 0.00 | 1104.6 | |
| 20260506173909 | 22 | 134 | 0.0 | 0.0 | 0.00 | 0.00 | 0.00 | 1104.5 | |
| 20260506173403 | 22 | 118 | 0.0 | 0.0 | 0.00 | 0.00 | 0.00 | 1104.5 | |
| 20260506172858 | 22 | 89 | 0.0 | 0.0 | 0.00 | 0.00 | 0.00 | 1104.4 | |
| 20260506172352 | 22 | 89 | 0.0 | 0.0 | 0.00 | 0.00 | 0.00 | 1104.4 | |
| 20260506171847 | 22 | 89 | 0.0 | 0.0 | 0.00 | 0.00 | 0.00 | 1104.4 | |
| 20260506171341 | 22 | 100 | 0.0 | 0.0 | 0.00 | 0.00 | 0.00 | 1104.4 | |
| 20260506170836 | 22 | 179 | 0.0 | 0.0 | 0.00 | 0.00 | 0.00 | 1104.4 | |
| 20260506170331 | 22 | 179 | 0.0 | 0.0 | 0.00 | 0.00 | 0.00 | 1104.4 | |
| 20260506165825 | 22 | 179 | 0.0 | 0.0 | 0.00 | 0.00 | 0.00 | 1104.6 | |
| 20260506165320 | 22 | 89 | 0.0 | 0.0 | 0.00 | 0.00 | 0.00 | 1104.5 | |
| 20260506164814 | 22 | 89 | 0.0 | 0.0 | 0.00 | 0.00 | 0.00 | 1104.6 | |
| 20260506164309 | 22 | 89 | 0.0 | 0.0 | 0.00 | 0.00 | 0.00 | 1104.6 | |
| 20260506163804 | 22 | 89 | 0.0 | 0.0 | 0.00 | 0.00 | 0.00 | 1104.7 | |
| 20260506163258 | 22 | 89 | 0.0 | 0.0 | 0.00 | 0.00 | 0.00 | 1104.7 | |
| 20260506162753 | 22 | 89 | 0.0 | 0.0 | 0.00 | 0.00 | 0.00 | 1104.7 | |
| 20260506162247 | 22 | 89 | 0.0 | 0.0 | 0.00 | 0.00 | 0.00 | 1104.6 | |
| 20260506161742 | 23 | 89 | 0.0 | 0.0 | 0.00 | 0.00 | 0.00 | 1104.7 | |
| 20260506161236 | 23 | 89 | 0.0 | 0.0 | 0.00 | 0.00 | 0.00 | 1104.8 | |
| 20260506160731 | 23 | 89 | 0.0 | 0.0 | 0.00 | 0.00 | 0.00 | 1104.7 | |
| 20260506160226 | 23 | 89 | 0.0 | 0.0 | 0.00 | 0.00 | 0.00 | 1104.5 | |
| 20260506155720 | 23 | 89 | 0.0 | 0.0 | 0.00 | 0.00 | 0.00 | 1104.6 | |
| 20260506155215 | 23 | 89 | 0.0 | 0.0 | 0.00 | 0.00 | 0.00 | 1104.6 | |
| 20260506154709 | 22 | 89 | 0.0 | 0.0 | 0.00 | 0.00 | 0.00 | 1104.6 | |
| 20260506154204 | 22 | 315 | 0.0 | 0.0 | 0.00 | 0.00 | 0.00 | 1104.6 | |
| 20260506153659 | 22 | 315 | 0.0 | 0.0 | 0.00 | 0.00 | 0.00 | 1104.6 | |
| 20260506153153 | 22 | 45 | 0.0 | 0.0 | 0.00 | 0.00 | 0.00 | 1104.5 | |
| 20260506152648 | 22 | 179 | 0.0 | 0.0 | 0.00 | 0.00 | 0.00 | 1104.6 | |
| 20260506152142 | 22 | 334 | 0.0 | 0.0 | 0.00 | 0.00 | 0.00 | 1104.6 | |
| 20260506151637 | 22 | 184 | 0.0 | 0.0 | 0.00 | 0.00 | 0.00 | 1104.7 | |
| 20260506151132 | 22 | 134 | 0.0 | 0.0 | 0.00 | 0.00 | 0.00 | 1104.8 | |
| 20260506150626 | 22 | 319 | 0.0 | 0.0 | 0.00 | 0.00 | 0.00 | 1104.7 | |
| 20260506150121 | 22 | 236 | 0.0 | 0.0 | 0.00 | 0.00 | 0.00 | 1104.8 | |
| 20260506145615 | 22 | 76 | 0.0 | 0.0 | 0.00 | 0.00 | 0.00 | 1104.8 | |
| 20260506145110 | 22 | 257 | 0.0 | 0.0 | 0.00 | 0.00 | 0.00 | 1105.0 | |
| 20260506144604 | 22 | 45 | 0.0 | 0.0 | 0.00 | 0.00 | 0.00 | 1104.9 | |
| 20260506144059 | 22 | 45 | 0.0 | 0.0 | 0.00 | 0.00 | 0.00 | 1104.9 | |
| 20260506143554 | 22 | 45 | 0.0 | 0.0 | 0.00 | 0.00 | 0.00 | 1105.1 | |
| 20260506143048 | 22 | 45 | 0.0 | 0.0 | 0.00 | 0.00 | 0.00 | 1105.0 | |
| 20260506142543 | 23 | 270 | 0.0 | 0.0 | 0.00 | 0.00 | 0.00 | 1104.7 | |
| 20260506142038 | 23 | 270 | 0.0 | 0.0 | 0.00 | 0.00 | 0.00 | 1104.7 | |
| 20260506141532 | 23 | 227 | 0.0 | 0.0 | 0.00 | 0.00 | 0.00 | 1104.7 | |
| 20260506141026 | 23 | 315 | 0.0 | 0.0 | 0.00 | 0.00 | 0.00 | 1104.7 | |
| 20260506140520 | 24 | 189 | 0.0 | 0.0 | 0.00 | 0.00 | 0.00 | 1104.9 | |
| 20260506140015 | 24 | 179 | 0.0 | 0.0 | 0.00 | 0.00 | 0.00 | 1104.8 | |
| 20260506135509 | 25 | 187 | 0.0 | 0.0 | 0.00 | 0.00 | 0.00 | 1104.8 | |
| 20260506135004 | 25 | 315 | 0.0 | 0.0 | 0.00 | 0.00 | 0.00 | 1104.9 | |
| 20260506134459 | 26 | 17 | 0.0 | 0.0 | 0.00 | 0.00 | 0.00 | 1105.0 | |
| 20260506133953 | 26 | 134 | 0.0 | 0.0 | 0.00 | 0.00 | 0.00 | 1105.0 | |
| 20260506133448 | 26 | 134 | 0.0 | 0.0 | 0.00 | 0.00 | 0.00 | 1105.0 | |
| 20260506132942 | 26 | 134 | 0.0 | 0.0 | 0.00 | 0.00 | 0.00 | 1105.0 | |
| 20260506132437 | 26 | 0 | 0.0 | 0.0 | 0.00 | 0.00 | 0.00 | 1105.0 | |
| 20260506131425 | 26 | 41 | 0.0 | 0.0 | 0.00 | 0.00 | 0.00 | 1105.1 | |
| 20260506130920 | 26 | 344 | 0.0 | 0.0 | 0.00 | 0.00 | 0.00 | 1105.2 | |
| 20260506130414 | 25 | 134 | 0.0 | 0.0 | 0.00 | 0.00 | 0.00 | 1105.4 | |
| 20260506125909 | 25 | 0 | 0.0 | 0.0 | 0.00 | 0.00 | 0.00 | 1105.5 | |
| 20260506125404 | 25 | 0 | 0.0 | 0.0 | 0.00 | 0.00 | 0.00 | 1105.5 | |
| 20260506124858 | 25 | 45 | 0.0 | 0.0 | 0.00 | 0.00 | 0.00 | 1105.5 | |
| 20260506124353 | 25 | 45 | 0.0 | 0.0 | 0.00 | 0.00 | 0.00 | 1105.6 | |
| 20260506123847 | 25 | 162 | 0.0 | 0.0 | 0.00 | 0.00 | 0.00 | 1105.7 | |
| 20260506123342 | 24 | 179 | 0.0 | 0.0 | 0.00 | 0.00 | 0.00 | 1105.6 | |
| 20260506122837 | 25 | 217 | 0.0 | 0.0 | 0.00 | 0.00 | 0.00 | 1105.8 | |
| 20260506122331 | 25 | 314 | 0.0 | 0.0 | 0.00 | 0.00 | 0.00 | 1105.7 | |
| 20260506121826 | 25 | 234 | 0.0 | 0.0 | 0.00 | 0.00 | 0.00 | 1105.8 | |
| 20260506121320 | 26 | 47 | 0.0 | 0.0 | 0.00 | 0.00 | 0.00 | 1105.8 | |
| 20260506120815 | 26 | 45 | 0.0 | 0.0 | 0.00 | 0.00 | 0.00 | 1105.8 | |
| 20260506120310 | 26 | 45 | 0.0 | 0.0 | 0.00 | 0.00 | 0.00 | 1105.7 | |
| 20260506115804 | 26 | 218 | 0.0 | 0.0 | 0.00 | 0.00 | 0.00 | 1105.8 | |
| 20260506115259 | 26 | 134 | 0.0 | 0.0 | 0.00 | 0.00 | 0.00 | 1105.8 | |
| 20260506114753 | 26 | 134 | 0.0 | 0.0 | 0.00 | 0.00 | 0.00 | 1105.9 | |
| 20260506114248 | 26 | 134 | 0.0 | 0.0 | 0.00 | 0.00 | 0.00 | 1105.8 | |
| 20260506113742 | 26 | 82 | 0.0 | 0.0 | 0.00 | 0.00 | 0.00 | 1105.8 | |
| 20260506113237 | 26 | 0 | 0.0 | 0.0 | 0.00 | 0.00 | 0.00 | 1105.9 | |
| 20260506112731 | 25 | 29 | 0.0 | 0.0 | 0.00 | 0.00 | 0.00 | 1105.8 | |
| 20260506112226 | 25 | 45 | 0.0 | 0.0 | 0.00 | 0.00 | 0.00 | 1105.8 | |
| 20260506111721 | 25 | 45 | 0.0 | 0.0 | 0.00 | 0.00 | 0.00 | 1105.8 | |
| 20260506111215 | 25 | 45 | 0.0 | 0.0 | 0.00 | 0.00 | 0.00 | 1105.8 | |
| 20260506110710 | 25 | 89 | 0.0 | 0.0 | 0.00 | 0.00 | 0.00 | 1105.8 | |
| 20260506110204 | 25 | 0 | 0.0 | 0.0 | 0.00 | 0.00 | 0.00 | 1105.9 | |
| 20260506105659 | 25 | 33 | 0.0 | 0.0 | 0.00 | 0.00 | 0.00 | 1105.9 | |
| 20260506105153 | 25 | 315 | 0.0 | 0.0 | 0.00 | 0.00 | 0.00 | 1106.0 | |
| 20260506104648 | 25 | 134 | 0.0 | 0.0 | 0.00 | 0.00 | 0.00 | 1106.0 | |
| 20260506104143 | 25 | 134 | 0.0 | 0.0 | 0.00 | 0.00 | 0.00 | 1106.1 | |
| 20260506103637 | 24 | 134 | 0.0 | 0.0 | 0.00 | 0.00 | 0.00 | 1106.2 | |
| 20260506103132 | 24 | 134 | 0.0 | 0.0 | 0.00 | 0.00 | 0.00 | 1106.4 | |
| 20260506102627 | 23 | 134 | 0.0 | 0.0 | 0.00 | 0.00 | 0.00 | 1106.3 | |
| 20260506102121 | 24 | 279 | 0.0 | 0.0 | 0.00 | 0.00 | 0.00 | 1106.5 | |
| 20260506101616 | 24 | 15 | 0.0 | 0.0 | 0.00 | 0.00 | 0.00 | 1106.5 | |
| 20260506101110 | 24 | 0 | 0.0 | 0.0 | 0.00 | 0.00 | 0.00 | 1106.5 | |
| 20260506100605 | 24 | 0 | 0.0 | 0.0 | 0.00 | 0.00 | 0.00 | 1106.6 | |
| 20260506100059 | 24 | 0 | 0.0 | 0.0 | 0.00 | 0.00 | 0.00 | 1106.5 | |
| 20260506095554 | 24 | 0 | 0.0 | 0.0 | 0.00 | 0.00 | 0.00 | 1106.5 | |
| 20260506095049 | 24 | 0 | 0.0 | 0.0 | 0.00 | 0.00 | 0.00 | 1106.5 | |
| 20260506094543 | 25 | 0 | 0.0 | 0.0 | 0.00 | 0.00 | 0.00 | 1106.5 | |
| 20260506094038 | 25 | 351 | 0.0 | 0.0 | 0.00 | 0.00 | 0.00 | 1106.5 | |
| 20260506093532 | 25 | 338 | 0.0 | 0.0 | 0.00 | 0.00 | 0.00 | 1106.4 | |
| 20260506093027 | 25 | 315 | 0.0 | 0.0 | 0.00 | 0.00 | 0.00 | 1106.4 | |
| 20260506092522 | 25 | 316 | 0.0 | 0.0 | 0.00 | 0.00 | 0.00 | 1106.4 | |
| 20260506092016 | 25 | 315 | 0.0 | 0.0 | 0.00 | 0.00 | 0.00 | 1106.4 | |
| 20260506091511 | 25 | 45 | 0.0 | 0.0 | 0.00 | 0.00 | 0.00 | 1106.4 | |
| 20260506091005 | 25 | 45 | 0.0 | 0.0 | 0.00 | 0.00 | 0.00 | 1106.3 | |
| 20260506090500 | 25 | 45 | 0.0 | 0.0 | 0.00 | 0.00 | 0.00 | 1106.1 | |
| 20260506085954 | 25 | 45 | 0.0 | 0.0 | 0.00 | 0.00 | 0.00 | 1106.1 | |
| 20260506085449 | 25 | 45 | 0.0 | 0.0 | 0.00 | 0.00 | 0.00 | 1106.2 | |
| 20260506084944 | 25 | 45 | 0.0 | 0.0 | 0.00 | 0.00 | 0.00 | 1106.0 | |
| 20260506084438 | 25 | 45 | 0.0 | 0.0 | 0.00 | 0.00 | 0.00 | 1106.1 | |
| 20260506083933 | 25 | 45 | 0.0 | 0.0 | 0.00 | 0.00 | 0.00 | 1106.0 | |
| 20260506083427 | 25 | 45 | 0.0 | 0.0 | 0.00 | 0.00 | 0.00 | 1105.9 | |
| 20260506082922 | 25 | 45 | 0.0 | 0.0 | 0.00 | 0.00 | 0.00 | 1105.9 | |
| 20260506082416 | 25 | 45 | 0.0 | 0.0 | 0.00 | 0.00 | 0.00 | 1105.9 | |
| 20260506082156 | 25 | 45 | 0.0 | 0.0 | 0.00 | 0.00 | 0.00 | 1105.8 | |
| 20260506081911 | 25 | 45 | 0.0 | 0.0 | 0.00 | 0.00 | 0.00 | 1105.8 | |
| 20260506081406 | 25 | 60 | 0.0 | 0.0 | 0.00 | 0.00 | 0.00 | 1105.9 | |
| 20260506080900 | 25 | 134 | 0.0 | 0.0 | 0.00 | 0.00 | 0.00 | 1105.8 | |
| 20260506080355 | 24 | 134 | 0.0 | 0.0 | 0.00 | 0.00 | 0.00 | 1105.8 | |
| 20260506073322 | 21 | 45 | 0.0 | 0.0 | 0.00 | 0.00 | 0.00 | 1105.7 | |
| 20260506072817 | 21 | 89 | 0.0 | 0.0 | 0.00 | 0.00 | 0.00 | 1105.8 | |
| 20260506072311 | 20 | 315 | 0.0 | 0.0 | 0.00 | 0.00 | 0.00 | 1106.0 | |
| 20260506071806 | 20 | 315 | 0.0 | 0.0 | 0.00 | 0.00 | 0.00 | 1106.0 | |
| 20260506071301 | 20 | 315 | 0.0 | 0.0 | 0.00 | 0.00 | 0.00 | 1106.0 | |
| 20260506070755 | 20 | 316 | 0.0 | 0.0 | 0.00 | 0.00 | 0.00 | 1105.9 | |
| 20260506070250 | 20 | 316 | 0.0 | 0.0 | 0.00 | 0.00 | 0.00 | 1106.1 | |
| 20260506062205 | 20 | 315 | 1.6 | 4.8 | 0.00 | 0.00 | 0.00 | 1105.7 | |
| 20260506061700 | 20 | 316 | 0.0 | 3.2 | 0.00 | 0.00 | 0.00 | 1105.8 | |
| 20260506061155 | 20 | 315 | 0.0 | 0.0 | 0.00 | 0.00 | 0.00 | 1106.0 | |
| 20260506060649 | 20 | 315 | 0.0 | 0.0 | 0.00 | 0.00 | 0.00 | 1106.2 | |
| 20260506060144 | 20 | 270 | 0.0 | 0.0 | 0.00 | 0.00 | 0.00 | 1106.0 | |
| 20260506051048 | 19 | 315 | 0.0 | 0.0 | 0.00 | 0.00 | 0.00 | 1106.3 | |
| 20260506050541 | 19 | 2 | 0.0 | 3.2 | 0.00 | 0.00 | 0.00 | 1106.3 | |
| 20260506045025 | 19 | 285 | 0.0 | 6.4 | 0.00 | 0.00 | 0.00 | 1106.2 | |
| 20260506044520 | 18 | 285 | 0.0 | 6.4 | 0.00 | 0.00 | 0.00 | 1105.9 | |
| 20260506044014 | 18 | 307 | 0.0 | 4.8 | 0.00 | 0.00 | 0.00 | 1105.8 | |
| 20260506043509 | 18 | 23 | 0.0 | 3.2 | 0.00 | 0.00 | 0.00 | 1105.8 | |
| 20260506043003 | 18 | 359 | 0.0 | 4.8 | 0.00 | 0.00 | 0.00 | 1105.9 | |
| 20260506042458 | 18 | 313 | 0.0 | 4.8 | 0.00 | 0.00 | 0.00 | 1106.0 | |
| 20260506041953 | 18 | 305 | 0.0 | 4.8 | 0.00 | 0.00 | 0.00 | 1106.0 | |
| 20260506041447 | 18 | 228 | 0.0 | 4.8 | 0.00 | 0.00 | 0.00 | 1106.1 | |
| 20260506040942 | 18 | 67 | 0.0 | 4.8 | 0.00 | 0.00 | 0.00 | 1106.1 | |
| 20260506040436 | 18 | 349 | 0.0 | 4.8 | 0.00 | 0.00 | 0.00 | 1106.0 | |
| 20260506035931 | 18 | 153 | 0.0 | 4.8 | 0.00 | 0.00 | 0.00 | 1105.9 | |
| 20260506035426 | 18 | 319 | 0.0 | 8.0 | 0.00 | 0.00 | 0.00 | 1105.9 | |
| 20260506034920 | 18 | 304 | 0.0 | 8.0 | 0.00 | 0.00 | 0.00 | 1105.9 | |
| 20260506034415 | 18 | 318 | 1.6 | 4.8 | 0.00 | 0.00 | 0.00 | 1106.0 | |
| 20260506033909 | 18 | 310 | 0.0 | 4.8 | 0.00 | 0.00 | 0.00 | 1106.1 | |
| 20260506033404 | 18 | 318 | 0.0 | 4.8 | 0.00 | 0.00 | 0.00 | 1106.0 | |
| 20260506032858 | 18 | 9 | 0.0 | 4.8 | 0.00 | 0.00 | 0.00 | 1106.3 | |
| 20260506032353 | 18 | 69 | 0.0 | 4.8 | 0.00 | 0.00 | 0.00 | 1106.3 | |
| 20260506031847 | 18 | 53 | 0.0 | 3.2 | 0.00 | 0.00 | 0.00 | 1106.4 | |
| 20260506031342 | 18 | 349 | 0.0 | 4.8 | 0.00 | 0.00 | 0.00 | 1106.3 | |
| 20260506030836 | 18 | 310 | 0.0 | 4.8 | 0.00 | 0.00 | 0.00 | 1106.2 | |
| 20260506030330 | 18 | 312 | 0.0 | 6.4 | 0.00 | 0.00 | 0.00 | 1106.3 | |
| 20260506025825 | 18 | 16 | 1.6 | 6.4 | 0.00 | 0.00 | 0.00 | 1106.4 | |
| 20260506025319 | 18 | 274 | 0.0 | 4.8 | 0.00 | 0.00 | 0.00 | 1106.4 | |
| 20260506024814 | 18 | 265 | 1.6 | 4.8 | 0.00 | 0.00 | 0.00 | 1106.6 | |
| 20260506024309 | 18 | 245 | 1.6 | 4.8 | 0.00 | 0.00 | 0.00 | 1106.6 | |
| 20260506023803 | 18 | 311 | 0.0 | 6.4 | 0.00 | 0.00 | 0.00 | 1106.7 | |
| 20260506023258 | 18 | 314 | 0.0 | 8.0 | 0.00 | 0.00 | 0.00 | 1106.8 | |
| 20260506022752 | 18 | 34 | 1.6 | 8.0 | 0.00 | 0.00 | 0.00 | 1106.7 | |
| 20260506022247 | 18 | 50 | 0.0 | 4.8 | 0.00 | 0.00 | 0.00 | 1106.8 | |
| 20260506021741 | 18 | 294 | 0.0 | 4.8 | 0.00 | 0.00 | 0.00 | 1106.9 | |
| 20260506021236 | 18 | 317 | 0.0 | 4.8 | 0.00 | 0.00 | 0.00 | 1107.0 | |
| 20260506020731 | 18 | 36 | 0.0 | 4.8 | 0.00 | 0.00 | 0.00 | 1107.1 | |
| 20260506020225 | 18 | 48 | 0.0 | 4.8 | 0.00 | 0.00 | 0.00 | 1107.0 | |
| 20260506015719 | 18 | 17 | 0.0 | 6.4 | 0.00 | 0.00 | 0.00 | 1107.1 | |
| 20260506015213 | 18 | 350 | 1.6 | 6.4 | 0.00 | 0.00 | 0.00 | 1107.0 | |
| 20260506014708 | 18 | 329 | 0.0 | 4.8 | 0.00 | 0.00 | 0.00 | 1107.0 | |
| 20260506014202 | 18 | 20 | 0.0 | 4.8 | 0.00 | 0.00 | 0.00 | 1107.0 | |
| 20260506013657 | 18 | 303 | 0.0 | 4.8 | 0.00 | 0.00 | 0.00 | 1107.0 | |
| 20260506013151 | 18 | 106 | 0.0 | 3.2 | 0.00 | 0.00 | 0.00 | 1107.0 | |
| 20260506012646 | 18 | 4 | 0.0 | 3.2 | 0.00 | 0.00 | 0.00 | 1107.1 | |
| 20260506012141 | 18 | 234 | 0.0 | 4.8 | 0.00 | 0.00 | 0.00 | 1107.1 | |
| 20260506011635 | 18 | 92 | 0.0 | 4.8 | 0.00 | 0.00 | 0.00 | 1107.1 | |
| 20260506011130 | 18 | 33 | 1.6 | 4.8 | 0.00 | 0.00 | 0.00 | 1107.1 | |
| 20260506010624 | 18 | 349 | 0.0 | 4.8 | 0.00 | 0.00 | 0.00 | 1107.1 | |
| 20260506010119 | 18 | 83 | 0.0 | 3.2 | 0.00 | 0.00 | 0.00 | 1107.1 | |
| 20260506005614 | 18 | 0 | 0.0 | 0.0 | 0.00 | 0.00 | 0.00 | 1107.2 | |
| 20260506005108 | 18 | 20 | 0.0 | 0.0 | 0.00 | 0.00 | 0.00 | 1107.3 | |
| 20260506004603 | 18 | 4 | 0.0 | 0.0 | 0.00 | 0.00 | 0.00 | 1107.3 | |
| 20260506004057 | 18 | 195 | 0.0 | 0.0 | 0.00 | 0.00 | 0.00 | 1107.2 | |
| 20260506003552 | 18 | 45 | 0.0 | 4.8 | 0.00 | 0.00 | 0.00 | 1107.3 | |
| 20260506003047 | 18 | 110 | 0.0 | 4.8 | 0.00 | 0.00 | 0.00 | 1107.3 | |
| 20260506002541 | 18 | 0 | 1.6 | 4.8 | 0.00 | 0.00 | 0.00 | 1107.1 | |
| 20260506002036 | 18 | 3 | 1.6 | 6.4 | 0.00 | 0.00 | 0.00 | 1107.1 | |
| 20260506001530 | 18 | 325 | 0.0 | 6.4 | 0.00 | 0.00 | 0.00 | 1107.2 | |
| 20260506001025 | 18 | 233 | 0.0 | 4.8 | 0.00 | 0.00 | 0.00 | 1107.2 | |
| 20260506000520 | 18 | 110 | 0.0 | 8.0 | 0.00 | 0.00 | 0.00 | 1107.3 | |
| 20260506000014 | 18 | 16 | 3.2 | 8.0 | 0.00 | 0.00 | 0.00 | 1107.3 | |
| 20260505235516 | 18 | 308 | 0.0 | 0.0 | 0.00 | 0.00 | 0.00 | 1107.3 | |
| 20260505234504 | 18 | 45 | 0.0 | 4.8 | 0.00 | 0.00 | 0.00 | 1107.5 | |
| 20260505234000 | 18 | 336 | 0.0 | 3.2 | 0.00 | 0.00 | 0.00 | 1107.6 | |
| 20260505233442 | 17 | 272 | 0.0 | 3.2 | 0.00 | 0.00 | 0.00 | 1107.7 | |
| 20260505232937 | 17 | 23 | 0.0 | 3.2 | 0.00 | 0.00 | 0.00 | 1107.7 | |
| 20260505232431 | 17 | 73 | 0.0 | 4.8 | 0.00 | 0.00 | 0.00 | 1107.8 | |
| 20260505231926 | 17 | 25 | 0.0 | 4.8 | 0.00 | 0.00 | 0.00 | 1107.7 | |
| 20260505231420 | 17 | 359 | 0.0 | 6.4 | 0.00 | 0.00 | 0.00 | 1107.8 | |
| 20260505230915 | 17 | 52 | 0.0 | 6.4 | 0.00 | 0.00 | 0.00 | 1107.9 | |
| 20260505230410 | 17 | 16 | 1.6 | 6.4 | 0.00 | 0.00 | 0.00 | 1107.9 | |
| 20260505225904 | 17 | 23 | 0.0 | 6.4 | 0.00 | 0.00 | 0.00 | 1107.9 | |
| 20260505225359 | 17 | 101 | 0.0 | 3.2 | 0.00 | 0.00 | 0.00 | 1108.0 | |
| 20260505224853 | 17 | 351 | 0.0 | 3.2 | 0.00 | 0.00 | 0.00 | 1108.0 | |
| 20260505224348 | 18 | 50 | 0.0 | 0.0 | 0.00 | 0.00 | 0.00 | 1108.0 | |
| 20260505223843 | 18 | 32 | 0.0 | 4.8 | 0.00 | 0.00 | 0.00 | 1108.2 | |
| 20260505223337 | 18 | 62 | 0.0 | 4.8 | 0.00 | 0.00 | 0.00 | 1108.2 | |
| 20260505222832 | 18 | 258 | 0.0 | 0.0 | 0.00 | 0.00 | 0.00 | 1108.2 | |
| 20260505222326 | 18 | 245 | 0.0 | 3.2 | 0.00 | 0.00 | 0.00 | 1108.2 | |
| 20260505221821 | 18 | 0 | 0.0 | 6.4 | 0.00 | 0.00 | 0.00 | 1108.3 | |
| 20260505221316 | 18 | 55 | 0.0 | 8.0 | 0.00 | 0.00 | 0.00 | 1108.4 | |
| 20260505220810 | 18 | 27 | 1.6 | 8.0 | 0.00 | 0.00 | 0.00 | 1108.4 | |
| 20260505220305 | 18 | 39 | 0.0 | 4.8 | 0.00 | 0.00 | 0.00 | 1108.3 | |
| 20260505215759 | 18 | 10 | 1.6 | 4.8 | 0.00 | 0.00 | 0.00 | 1108.3 |